CZ-6A DEB, 54541

Orbit data source: Space-Track

CZ-6A DEB, 54541 is space debris in SSO originally from a launch on Fri, 11 Nov 2022 UTC launched from the Taiyaun Space Center, China (TSC). Debris objects in space refer to the collection of defunct objects orbiting the Earth. Examples of debris include non-operational satellites, rocket bodies, and fragments generated from explosions, collisions, or faulty payload assembly.

Loading next visibility...
Identifier
54541, 2022-151KR
Orbit
SSO
Country
Flag of CNCN / PRC
Related business
Manufacturer
SAST
Mission
Spacecraft
Bus & Motor
Unknown
Mass
Unknown
Launch date (UTC)
2022-11-11 (3 years ago)
Launch vehicle
Unknown
Launch site
Taiyaun Space Center, China (TSC)
Object type
Payload
Rocket body
Debris
Shape & HBR
Unknown shape, 0.6 m
Radar Cross Section
Medium (>0.1 m² and <1 m²)

Expand to show TLE details & history
Last TLE update: 14 hours ago

TLE from 14 hours ago
0 CZ-6A DEB
1 54541U 22151KR  25354.92045340  .00000374  00000-0  24467-3 0  9996
2 54541  98.8538 349.1172 0061338 146.2487 214.2610 14.07216235159295
Epoch: 2025-12-20T22:05Z
TLE epoch observation values (Epoch: 2025-12-20T22:05:27.173Z)
Latitude
-0.00009°
Longitude
-71.98634°
Altitude
908.638 km
Speed
7.379 km/s
True Right ascension
23h 16m 28s
True Declination
0° 00' 00"
Sunlit
Object was in daylight at epoch
Visualization orbit readout
Latitude
Unknown
Longitude
Unknown
Altitude
Unknown
Speed
Unknown
Apparent Right ascension
Unknown
Apparent Declination
Unknown
Sunlit
N/A
Visualization observer readout
Local Sidereal Time
10:39:48
Azimuth
Unknown
Elevation
Unknown
Doppler factor
Unknown
Orbital elements
Apogee altitude
910.531 km
Perigee altitude
821.661 km
Semi-major axis
7,244.233 km
Eccentricity
0.00613
Inclination
98.8538°
RAAN
349.1172°
Arg. of periapsis
146.2487°
True anomaly
213.8678°
Mean anomaly
214.261°
Eccentric anomaly
214.06415°
Mean motion
3.5201 °/min
Orbital period
102.27 mins
BSTAR
0.00024467
Loading maneuver chart data...
Computing Atmospheric mass density...
Loading historical data...
Loading historical data...
Loading historical data...
Loading historical data...
Loading historical data...
Loading historical data...
Loading historical data...

Documentation

Showing up to 5 results
|